ORBCOMM FM 1
1 25413U 98046A   03060.12747900  .00000661  00000-0  33269-3 0  2421
2 25413  44.9977 174.1531 0003564 197.8522 162.2199 14.25903509238169
ORBCOMM FM 1
1 25414U 98046B   03059.50718944  .00000402  00000-0  22483-3 0  1943
2 25414  44.9960 177.0741 0004018 176.2808 183.8063 14.25897642238079
ORBCOMM FM 1
1 25415U 98046C   03060.14745576  .00000434  00000-0  23805-3 0  2245
2 25415  44.9970 174.2370 0004070 184.7027 175.3782 14.25903611238161
ORBCOMM FM 2
1 25416U 98046D   03058.75616522  .00000380  00000-0  21568-3 0   677
2 25416  44.9963 180.8565 0003890 185.0959 174.9845 14.25901807237923
ORBCOMM FM 1
1 25417U 98046E   03059.74753714  .00000477  00000-0  25619-3 0  2943
2 25417  45.0046 176.6419 0002959 212.9917 147.0740 14.25899358238101
ORBCOMM FM 1
1 25418U 98046F   03060.45790069  .00000667  00000-0  33498-3 0  3472
2 25418  45.0020 173.5013 0004013 208.6943 151.3673 14.25906787238203
ORBCOMM FM 1
1 25419U 98046G   03059.76735620  .00000776  00000-0  38034-3 0  2962
2 25419  44.9984 176.7607 0002887 192.7425 167.3345 14.25902691238102
ORBCOMM FM 1
1 25420U 98046H   03060.54279362  .00000793  00000-0  38744-3 0  1548
2 25420  45.0005 173.2924 0004207 201.0182 159.0486 14.25908697238247
ORBCOMM FM 2
1 25475U 98053A   03059.77086565  .00000495  00000-0  25685-3 0  2731
2 25475  45.0187 286.9587 0004757  70.9230 289.2130 14.27251805230925
ORBCOMM FM 2
1 25476U 98053B   03059.80578228  .00000529  00000-0  27092-3 0   761
2 25476  45.0116 287.1747 0001938  97.5582 262.5528 14.27249550230910
ORBCOMM FM 2
1 25477U 98053C   03060.07395219  .00000577  00000-0  29023-3 0  2514
2 25477  45.0191 285.7216 0002856  88.0308 272.0864 14.27254516231121
ORBCOMM FM 2
1 25478U 98053D   03059.99215373  .00000567  00000-0  28618-3 0   264
2 25478  45.0126 286.1283 0001373  89.0675 271.0308 14.27252059231098
ORBCOMM FM 2
1 25479U 98053E   03060.02776958  .00000256  00000-0  16024-3 0  1390
2 25479  45.0135 285.5126 0002726 121.3645 238.7465 14.27241216231095
ORBCOMM FM 2
1 25480U 98053F   03060.02517866  .00000200  00000-0  13606-3 0  2183
2 25480  45.0185 283.8509 0005316 162.8761 197.2264 14.27805930231090
ORBCOMM FM 2
1 25481U 98053G   03059.61912189  .00000238  00000-0  15293-3 0   479
2 25481  45.0100 287.3920 0002480  68.2733 291.8384 14.27248847231037
ORBCOMM FM 2
1 25482U 98053H   03060.05433058  .00000794  00000-0  36869-3 0  8829
2 25482  45.0111 279.6596 0004125 141.3070 218.8097 14.28576294231152
ORBCOMM FM 3
1 25980U 99065A   03059.56088183  .00000374  00000-0  20836-3 0  8141
2 25980  45.0423  85.4712 0005170 307.1837  52.8535 14.27151415168399
ORBCOMM FM 3
1 25981U 99065B   03059.47915841  .00000428  00000-0  23019-3 0  8564
2 25981  45.0256  85.0513 0005205 310.5723  49.4664 14.27149023168375
ORBCOMM FM 3
1 25982U 99065C   03060.44785536  .00000404  00000-0  22050-3 0  8311
2 25982  45.0271  80.4542 0004409 316.3156  43.7337 14.27148632168518
ORBCOMM FM 3
1 25983U 99065D   03060.23280776  .00000320  00000-0  18630-3 0  8221
2 25983  45.0335  81.8911 0004609 314.5404  45.5056 14.27144760168485
ORBCOMM FM 3
1 25984U 99065E   03060.22618816  .00000622  00000-0  30914-3 0  7943
2 25984  45.0402  82.4881 0008104 252.2755 107.7205 14.27145132168486
ORBCOMM FM 3
1 25985U 99065F   03060.49450022  .00000760  00000-0  36527-3 0  8159
2 25985  45.0442  81.4323 0004147 287.4285  72.6105 14.27157466168529
ORBCOMM FM 3
1 25986U 99065G   03060.20265048  .00000556  00000-0  28239-3 0  8256
2 25986  45.0476  82.5415 0006215 292.9107  67.1081 14.27156182168484
GLOBSTR M001
1 25162U 98008A   03059.19667447 -.00000104  00000-0  00000+0 0  7131
2 25162  52.0018  50.9700 0000619 160.4339 199.6551 12.62257089232462
GLOBSTR M004
1 25163U 98008B   03059.42111267 -.00000104  00000-0  00000+0 0  7086
2 25163  51.9991  49.8729 0000539  79.5610 280.5316 12.62250745232508
GLOBSTR M002
1 25164U 98008C   03060.49219023 -.00000084  00000-0  10000-3 0  6435
2 25164  52.0045 110.0939 0007490 179.1572 180.9294 12.38119987231504
GLOBSTR M003
1 25165U 98008D   03060.12058297 -.00000104  00000-0  00000+0 0  6922
2 25165  51.9888  46.9996 0001135 124.5057 235.5918 12.62250063232587
GLOBSTR M014
1 25306U 98023A   03059.28990210 -.00000097  00000-0  00000+0 0  4885
2 25306  51.9918 163.8689 0014224 306.3053  53.6485 12.38592671222411
GLOBSTR M006
1 25307U 98023B   03058.56173106 -.00000104  00000-0  00000-0 0  5097
2 25307  51.9997  97.4427 0002340 135.4015 224.7039 12.62257684223557
GLOBSTR M015
1 25308U 98023C   03059.56468686 -.00000086  00000-0  10000-3 0  5159
2 25308  51.9972  94.0398 0001564 148.8908 211.2050 12.62257911223688
GLOBSTR M008
1 25309U 98023D   03058.60142610 -.00000104  00000-0  00000-0 0  4943
2 25309  51.9959  97.0791 0001628 153.1682 206.9269 12.62261887223571
GLOBSTR M023
1 25621U 99004A   03060.30726307 -.00000104  00000-0  00000+0 0  4108
2 25621  52.0076   2.5677 0000676 143.5159 216.5754 12.62257992187328
GLOBSTR M040
1 25622U 99004B   03059.15907727 -.00000104  00000-0  00000+0 0  4141
2 25622  51.9973   5.2072 0001167 122.2842 237.8137 12.62267804187189
GLOBSTR M036
1 25623U 99004C   03059.17223384 -.00000104  00000-0  00000+0 0  4177
2 25623  52.0025   6.1154 0001038 214.9974 145.0824 12.62257356187198
GLOBSTR M038
1 25624U 99004D   03058.95438630 -.00000104  00000-0  00000-0 0  4109
2 25624  52.0078   6.0157 0001475  96.5086 263.5945 12.62269903187182
GLOBSTR M022
1 25649U 99012A   03060.21008527 -.00000086  00000-0  10000-3 0  4052
2 25649  52.0097 138.4658 0002390 147.8870 212.2141 12.62263052182884
GLOBSTR M041
1 25650U 99012B   03060.53982385 -.00000086  00000-0  10000-3 0  4119
2 25650  52.0077 137.4185 0001472  75.6007 284.5006 12.62268565182929
GLOBSTR M046
1 25651U 99012C   03060.23616106 -.00000086  00000-0  10000-3 0  4189
2 25651  52.0013 136.8761 0002385  89.5189 270.5797 12.62268796182874
GLOBSTR M037
1 25652U 99012D   03058.69240465 -.00000086  00000-0  10000-3 0  4278
2 25652  52.0037 142.9664 0001480 116.2542 243.8476 12.62263810182641
GLOBSTR M045
1 25676U 99019A   03059.55019074  .00000077  00000-0  10075-2 0  4930
2 25676  51.9936 139.1919 0023341 124.1269 236.1791 12.62262082180359
GLOBSTR M019
1 25677U 99019B   03058.80934074 -.00000073  00000-0  17377-3 0  4293
2 25677  51.9836 186.8089 0001651 125.8975 234.2043 12.62262384180206
GLOBSTR M044
1 25678U 99019C   03059.53695813 -.00000086  00000-0  10000-3 0  4302
2 25678  52.0030 140.3084 0001704 166.2016 193.8895 12.62261136179699
GLOBSTR M042
1 25679U 99019D   03058.96620209 -.00000086  00000-0  10000-3 0  5060
2 25679  52.0072 231.5986 0001158  84.7231 275.3768 12.62261621178790
GLOBSTR M025
1 25770U 99031A   03059.81233335 -.00000086  00000-0  10000-3 0  3834
2 25770  51.9981 183.9643 0001496 110.0854 250.0172 12.62260841171658
GLOBSTR M049
1 25771U 99031B   03058.83578959 -.00000086  00000-0  10000-3 0  5821
2 25771  51.9926 186.6632 0001512 112.8435 247.2590 12.62261281171538
GLOBSTR M047
1 25772U 99031C   03059.82568314 -.00000086  00000-0  10000-3 0  4432
2 25772  51.9933 183.3827 0001866 158.8069 201.2874 12.62261338171664
GLOBSTR M052
1 25773U 99031D   03060.32702410  .00000983  00000-0  60642-2 0  4416
2 25773  51.9908 181.6973 0002190 117.4190 242.6708 12.62278762171728
GLOBSTR M035
1 25851U 99037A   03058.97941638 -.00000104  00000-0  00000+0 0  3654
2 25851  51.9990 230.7191 0001747  91.4143 268.6923 12.62262254167798
GLOBSTR M032
1 25852U 99037B   03058.91330434 -.00000104  00000-0  00000-0 0  3634
2 25852  52.0025 231.0941 0001284 101.5719 258.5291 12.62260535167780
GLOBSTR M051
1 25853U 99037C   03058.95294726 -.00000104  00000-0  00000-0 0  3700
2 25853  51.9980 231.1661 0001398  79.7016 280.4007 12.62261546167783
GLOBSTR M030
1 25854U 99037D   03058.92648350 -.00000104  00000-0  00000-0 0  3782
2 25854  51.9979 231.1163 0001506  86.0592 274.0447 12.62258458167785
GLOBSTR M048
1 25872U 99041A   03058.96432282 -.00000104  00000-0  00000-0 0  3843
2 25872  52.0070 276.6098 0001234 105.1941 254.9062 12.62256994165904
GLOBSTR M026
1 25873U 99041B   03060.56155482 -.00000104  00000-0  00000+0 0  3802
2 25873  52.0136 271.8411 0001336  80.2418 279.8602 12.62262251166101
GLOBSTR M043
1 25874U 99041C   03060.52163390 -.00000104  00000-0  00000+0 0  3716
2 25874  52.0000 272.1221 0002009  43.2639 316.8387 12.62256891166090
GLOBSTR M028
1 25875U 99041D   03060.11264196 -.00000104  00000-0  00000+0 0  3550
2 25875  51.9918 273.2177 0001446  45.0001 315.0982 12.62259610166045
GLOBSTR M024
1 25883U 99043A   03059.16075812 -.00000104  00000-0  00000+0 0  3616
2 25883  52.0090 321.5867 0001278  35.8794 324.2159 12.62261809163047
GLOBSTR M054
1 25884U 99043B   03058.85734103 -.00000104  00000-0  00000-0 0  3809
2 25884  52.0108 322.1196 0001342  63.0661 297.0348 12.62258943163017
GLOBSTR M027
1 25885U 99043C   03058.89687034 -.00000104  00000-0  00000-0 0  3826
2 25885  52.0137 322.2074 0001399  82.7830 277.3196 12.62259030163014
GLOBSTR M053
1 25886U 99043D   03058.83092996 -.00000104  00000-0  00000-0 0  3660
2 25886  52.0144 322.5999 0000715  82.2932 277.8025 12.62259999163000
GLOBSTR M058
1 25907U 99049A   03058.88372405 -.00000086  00000-0  10000-3 0  3620
2 25907  51.9987 321.7340 0001823 152.3155 207.7811 12.62263136159261
GLOBSTR M050
1 25908U 99049B   03060.32057424 -.00000054  00000-0  27737-3 0  3534
2 25908  51.9951   1.8827 0001712 124.9236 235.1788 12.62262874158671
GLOBSTR M033
1 25909U 99049C   03060.21661754 -.00000086  00000-0  10000-3 0  3574
2 25909  52.0026 317.6739 0000367 240.9437 119.1393 12.62265031159418
